Year,Month,Day,Hour,Minute,Value (Times are PST for temperature in C)
2004,03,17,00,00,8.60
2004,03,17,00,01,8.60
2004,03,17,00,02,8.70
2004,03,17,00,03,8.70
2004,03,17,00,04,8.70
2004,03,17,00,05,8.70
2004,03,17,00,06,8.70
2004,03,17,00,07,8.70
2004,03,17,00,08,8.70
2004,03,17,00,09,8.70
2004,03,17,00,10,8.80
2004,03,17,00,11,8.80
2004,03,17,00,12,8.80
2004,03,17,00,13,8.80
2004,03,17,00,14,8.80
2004,03,17,00,15,8.80
2004,03,17,00,16,8.80
2004,03,17,00,17,8.80
2004,03,17,00,18,8.80
2004,03,17,00,19,8.80
2004,03,17,00,20,8.80
2004,03,17,00,21,8.80
2004,03,17,00,22,8.80
2004,03,17,00,23,8.80
2004,03,17,00,24,8.80
2004,03,17,00,25,8.80
2004,03,17,04,06,8.70
2004,03,17,04,07,8.70
2004,03,17,04,08,8.70
2004,03,17,04,09,8.70
2004,03,17,04,10,8.70
2004,03,17,04,11,8.70
2004,03,17,04,12,8.60
2004,03,17,04,13,8.70
2004,03,17,04,14,8.70
2004,03,17,04,15,8.80
2004,03,17,04,16,8.80
2004,03,17,04,17,8.80
2004,03,17,04,18,8.80
2004,03,17,04,19,8.80
2004,03,17,04,20,8.80
2004,03,17,04,21,8.90
2004,03,17,04,22,9.00
2004,03,17,04,23,9.00
2004,03,17,04,24,9.00
2004,03,17,04,25,8.90
2004,03,17,04,26,8.90
2004,03,17,04,27,8.90
2004,03,17,04,28,8.90
2004,03,17,04,29,8.90
2004,03,17,04,30,8.90
2004,03,17,04,31,8.90
2004,03,17,04,32,8.80
2004,03,17,04,33,8.80
2004,03,17,04,34,8.80
2004,03,17,04,35,8.80
2004,03,17,04,36,8.90
2004,03,17,04,37,8.90
2004,03,17,04,38,8.90
2004,03,17,04,39,8.90
2004,03,17,04,40,9.00
2004,03,17,04,41,9.00
2004,03,17,04,42,9.00
2004,03,17,04,43,8.90
2004,03,17,04,44,8.90
2004,03,17,04,45,8.90
2004,03,17,04,46,9.00
2004,03,17,04,47,9.00
2004,03,17,04,48,8.90
2004,03,17,04,49,9.00
2004,03,17,04,50,8.90
2004,03,17,04,51,8.80
2004,03,17,04,52,8.70
2004,03,17,04,53,8.70
2004,03,17,04,54,8.80
2004,03,17,04,55,8.80
2004,03,17,04,56,8.80
2004,03,17,04,57,8.80
2004,03,17,04,58,8.80
2004,03,17,04,59,8.80
2004,03,17,05,00,8.80
2004,03,17,05,01,8.70
2004,03,17,05,02,8.80
2004,03,17,05,03,8.80
2004,03,17,05,04,8.70
2004,03,17,05,05,8.70
2004,03,17,05,06,8.70
2004,03,17,05,07,8.70
2004,03,17,05,08,8.70
2004,03,17,05,09,8.70
2004,03,17,05,10,8.70
2004,03,17,05,11,8.70
2004,03,17,05,12,8.70
2004,03,17,05,13,8.70
2004,03,17,05,14,8.70
2004,03,17,05,15,8.70
2004,03,17,05,16,8.60
2004,03,17,05,17,8.60
2004,03,17,05,18,8.60
2004,03,17,05,19,8.60
2004,03,17,05,20,8.60
2004,03,17,05,21,8.70
2004,03,17,05,22,8.70
2004,03,17,05,23,8.70
2004,03,17,05,24,8.70
2004,03,17,05,25,8.70
2004,03,17,05,26,8.80
2004,03,17,05,27,8.80
2004,03,17,05,28,8.90
2004,03,17,05,29,8.80
2004,03,17,05,30,8.80
2004,03,17,05,31,8.70
2004,03,17,05,32,8.70
2004,03,17,05,33,8.70
2004,03,17,05,34,8.70
2004,03,17,05,35,8.80
2004,03,17,05,36,8.80
2004,03,17,05,37,8.80
2004,03,17,05,38,8.80
2004,03,17,05,39,8.80
2004,03,17,05,40,8.80
2004,03,17,05,41,8.80
2004,03,17,05,42,8.80
2004,03,17,05,43,8.90
2004,03,17,05,44,8.90
2004,03,17,05,45,8.90
2004,03,17,05,46,8.90
2004,03,17,05,47,8.90
2004,03,17,05,48,8.90
2004,03,17,05,49,8.90
2004,03,17,05,50,8.90
2004,03,17,05,51,8.80
2004,03,17,05,52,8.70
2004,03,17,05,53,8.70
2004,03,17,05,54,8.70
2004,03,17,05,55,8.70
2004,03,17,05,56,8.70
2004,03,17,05,57,8.70
2004,03,17,05,58,8.70
2004,03,17,05,59,8.70
2004,03,17,06,00,8.70
2004,03,17,06,01,8.70
2004,03,17,06,02,8.70
2004,03,17,06,03,8.70
2004,03,17,06,04,8.80
2004,03,17,06,05,8.70
2004,03,17,06,06,8.70
2004,03,17,06,07,8.70
2004,03,17,06,08,8.70
2004,03,17,06,09,8.70
2004,03,17,06,10,8.70
2004,03,17,06,11,8.70
2004,03,17,06,12,8.70
2004,03,17,06,13,8.70
2004,03,17,06,14,8.60
2004,03,17,06,15,8.60
2004,03,17,06,16,8.70
2004,03,17,06,17,8.70
2004,03,17,06,18,8.70
2004,03,17,06,19,8.70
2004,03,17,06,20,8.70
2004,03,17,06,21,8.70
2004,03,17,06,22,8.60
2004,03,17,06,23,8.70
2004,03,17,06,24,8.70
2004,03,17,06,25,8.70
2004,03,17,06,26,8.70
2004,03,17,06,27,8.80
2004,03,17,06,28,8.80
2004,03,17,06,29,8.70
2004,03,17,06,30,8.70
2004,03,17,06,31,8.70
2004,03,17,06,32,8.70
2004,03,17,06,33,8.70
2004,03,17,06,34,8.70
2004,03,17,06,35,8.80
2004,03,17,06,36,8.70
2004,03,17,06,37,8.70
2004,03,17,06,38,8.70
2004,03,17,06,39,8.60
2004,03,17,06,40,8.60
2004,03,17,06,41,8.70
2004,03,17,06,42,8.70
2004,03,17,06,43,8.70
2004,03,17,06,44,8.70
2004,03,17,06,45,8.60
2004,03,17,06,46,8.70
2004,03,17,06,47,8.70
2004,03,17,06,48,8.70
2004,03,17,06,49,8.70
2004,03,17,06,50,8.70
2004,03,17,06,51,8.60
2004,03,17,06,52,8.60
2004,03,17,06,53,8.70
2004,03,17,06,54,8.70
2004,03,17,06,55,8.70
2004,03,17,06,56,8.70
2004,03,17,06,57,8.60
2004,03,17,06,58,8.60
2004,03,17,06,59,8.60
2004,03,17,07,00,8.70
2004,03,17,07,01,8.70
2004,03,17,07,02,8.70
2004,03,17,07,03,8.70
2004,03,17,07,04,8.70
2004,03,17,07,05,8.70
2004,03,17,07,06,8.70
2004,03,17,07,07,8.70
2004,03,17,07,08,8.70
2004,03,17,07,09,8.70
2004,03,17,07,10,8.80
2004,03,17,07,11,8.80
2004,03,17,07,12,8.70
2004,03,17,07,13,8.70
2004,03,17,07,14,8.70
2004,03,17,07,15,8.70
2004,03,17,07,16,8.70
2004,03,17,07,17,8.70
2004,03,17,07,18,8.70
2004,03,17,07,19,8.70
2004,03,17,07,20,8.70
2004,03,17,07,21,8.70
2004,03,17,07,22,8.70
2004,03,17,07,23,8.70
2004,03,17,07,24,8.70
2004,03,17,07,25,8.70
2004,03,17,07,26,8.70
2004,03,17,07,27,8.70
2004,03,17,07,28,8.60
2004,03,17,07,29,8.60
2004,03,17,07,30,8.60
2004,03,17,07,31,8.60
2004,03,17,07,32,8.50
2004,03,17,07,33,8.50
2004,03,17,07,34,8.50
2004,03,17,07,35,8.60
2004,03,17,07,36,8.60
2004,03,17,07,37,8.60
2004,03,17,07,38,8.60
2004,03,17,07,39,8.60
2004,03,17,07,40,8.60
2004,03,17,07,41,8.60
2004,03,17,07,42,8.70
2004,03,17,07,43,8.70
2004,03,17,07,44,8.70
2004,03,17,07,45,8.70
2004,03,17,07,46,8.70
2004,03,17,07,47,8.70
2004,03,17,07,48,8.70
2004,03,17,07,49,8.70
2004,03,17,07,50,8.70
2004,03,17,07,51,8.80
2004,03,17,07,52,8.70
2004,03,17,07,53,8.70
2004,03,17,07,54,8.60
2004,03,17,07,55,8.70
2004,03,17,07,56,8.60
2004,03,17,07,57,8.60
2004,03,17,07,58,8.60
2004,03,17,07,59,8.60
2004,03,17,08,00,8.60
2004,03,17,08,01,8.50
2004,03,17,08,02,8.50
2004,03,17,08,03,8.50
2004,03,17,08,04,8.60
2004,03,17,08,05,8.60
2004,03,17,08,06,8.70
2004,03,17,08,07,8.70
2004,03,17,08,08,8.70
2004,03,17,08,09,8.70
2004,03,17,08,10,8.70
2004,03,17,08,11,8.70
2004,03,17,08,12,8.70
2004,03,17,08,13,8.70
2004,03,17,08,14,8.70
2004,03,17,08,15,8.70
2004,03,17,08,16,8.70
2004,03,17,08,17,8.70
2004,03,17,08,18,8.70
2004,03,17,08,19,8.60
2004,03,17,08,20,8.60
2004,03,17,08,21,8.60
2004,03,17,08,22,8.60
2004,03,17,08,23,8.70
2004,03,17,08,24,8.70
2004,03,17,08,25,8.70
2004,03,17,08,26,8.70
2004,03,17,08,27,8.70
2004,03,17,08,28,8.60
2004,03,17,08,29,8.60
2004,03,17,08,30,8.60
2004,03,17,08,31,8.70
2004,03,17,08,32,8.60
2004,03,17,08,33,8.60
2004,03,17,08,34,8.60
2004,03,17,08,35,8.60
2004,03,17,08,36,8.60
2004,03,17,08,37,8.60
2004,03,17,08,38,8.70
2004,03,17,08,39,8.70
2004,03,17,08,40,8.60
2004,03,17,08,41,8.50
2004,03,17,08,42,8.60
2004,03,17,08,43,8.60
2004,03,17,08,44,8.60
2004,03,17,08,45,8.70
2004,03,17,08,46,8.60
2004,03,17,08,47,8.60
2004,03,17,08,48,8.60
2004,03,17,08,49,8.70
2004,03,17,08,50,8.60
2004,03,17,08,51,8.70
2004,03,17,08,52,8.70
2004,03,17,08,53,8.60
2004,03,17,08,54,8.60
2004,03,17,08,55,8.50
2004,03,17,08,56,8.50
2004,03,17,08,57,8.50
2004,03,17,08,58,8.50
2004,03,17,08,59,8.50
2004,03,17,09,00,8.50
2004,03,17,09,01,8.50
2004,03,17,09,02,8.50
2004,03,17,09,03,8.60
2004,03,17,09,04,8.60
2004,03,17,09,05,8.60
2004,03,17,09,06,8.60
2004,03,17,09,07,8.60
2004,03,17,09,08,8.50
2004,03,17,09,09,8.50
2004,03,17,09,10,8.50
2004,03,17,09,11,8.50
2004,03,17,09,12,8.60
2004,03,17,09,13,8.70
2004,03,17,09,14,8.70
2004,03,17,09,15,8.70
2004,03,17,09,16,8.70
2004,03,17,09,17,8.70
2004,03,17,09,18,8.70
2004,03,17,09,19,8.60
2004,03,17,09,20,8.70
2004,03,17,09,21,8.70
2004,03,17,09,22,8.70
2004,03,17,09,23,8.70
2004,03,17,09,24,8.70
2004,03,17,09,25,8.70
2004,03,17,09,26,8.70
2004,03,17,09,27,8.60
2004,03,17,09,28,8.60
2004,03,17,09,29,8.60
2004,03,17,09,30,8.70
2004,03,17,09,31,8.70
2004,03,17,09,32,8.60
2004,03,17,09,33,8.70
2004,03,17,09,34,8.70
2004,03,17,09,35,8.60
2004,03,17,09,36,8.80
2004,03,17,09,37,8.80
2004,03,17,09,38,8.80
2004,03,17,09,39,8.80
2004,03,17,09,40,8.80
2004,03,17,09,41,8.90
2004,03,17,09,42,8.80
2004,03,17,09,43,8.90
2004,03,17,09,44,8.90
2004,03,17,09,45,8.90
2004,03,17,09,46,8.80
2004,03,17,09,47,8.70
2004,03,17,09,48,8.70
2004,03,17,09,49,8.70
2004,03,17,09,50,8.80
2004,03,17,09,51,8.80
2004,03,17,09,52,8.80
2004,03,17,09,53,8.70
2004,03,17,09,54,8.70
2004,03,17,09,55,8.70
2004,03,17,09,56,8.80
2004,03,17,09,57,8.80
2004,03,17,09,58,8.80
2004,03,17,09,59,8.70
2004,03,17,10,00,8.70
2004,03,17,10,01,8.70
2004,03,17,10,02,8.70
2004,03,17,10,03,8.70
2004,03,17,10,04,8.70
2004,03,17,10,05,8.70
2004,03,17,10,06,8.80
2004,03,17,10,07,8.80
2004,03,17,10,08,8.70
2004,03,17,10,09,8.80
2004,03,17,10,10,8.80
2004,03,17,10,11,8.80
2004,03,17,10,12,8.80
2004,03,17,10,13,8.70
2004,03,17,10,14,8.70
2004,03,17,10,15,8.70
2004,03,17,10,16,8.70
2004,03,17,10,17,8.70
2004,03,17,10,18,8.70
2004,03,17,10,19,8.70
2004,03,17,10,20,8.70
2004,03,17,10,21,8.70
2004,03,17,10,22,8.60
2004,03,17,10,23,8.60
2004,03,17,10,24,8.60
2004,03,17,10,25,8.60
2004,03,17,10,26,8.70
2004,03,17,10,27,8.60
2004,03,17,10,28,8.60
2004,03,17,10,29,8.50
2004,03,17,10,30,8.50
2004,03,17,10,31,8.50
2004,03,17,10,32,8.40
2004,03,17,10,33,8.40
2004,03,17,10,34,8.50
2004,03,17,10,35,8.50
2004,03,17,10,36,8.50
2004,03,17,10,37,8.40
2004,03,17,10,38,8.40
2004,03,17,10,39,8.40
2004,03,17,10,40,8.40
2004,03,17,10,41,8.40
2004,03,17,10,42,8.40
2004,03,17,10,43,8.30
2004,03,17,10,44,8.30
2004,03,17,10,45,8.30
2004,03,17,10,46,8.40
2004,03,17,10,47,8.50
2004,03,17,10,48,8.60
2004,03,17,10,49,8.60
2004,03,17,10,50,8.70
2004,03,17,10,51,8.70
2004,03,17,10,52,8.60
2004,03,17,10,53,8.50
2004,03,17,10,54,8.40
2004,03,17,10,55,8.40
2004,03,17,10,56,8.40
2004,03,17,10,57,8.30
2004,03,17,10,58,8.30
2004,03,17,10,59,8.30
2004,03,17,11,00,8.30
2004,03,17,11,01,8.40
2004,03,17,11,02,8.40
2004,03,17,11,03,8.40
2004,03,17,11,04,8.40
2004,03,17,11,05,8.40
2004,03,17,11,06,8.40
2004,03,17,11,07,8.50
2004,03,17,11,08,8.40
2004,03,17,11,09,8.40
2004,03,17,11,10,8.40
2004,03,17,11,11,8.40
2004,03,17,11,12,8.40
2004,03,17,11,13,8.50
2004,03,17,11,14,8.50
2004,03,17,11,15,8.50
2004,03,17,11,16,8.60
2004,03,17,11,17,8.60
2004,03,17,11,18,8.60
2004,03,17,11,19,8.60
2004,03,17,11,20,8.60
2004,03,17,11,21,8.70
2004,03,17,11,22,8.80
2004,03,17,11,23,8.90
2004,03,17,11,24,8.90
2004,03,17,11,25,8.90
2004,03,17,11,26,8.80
2004,03,17,11,27,8.90
2004,03,17,11,28,8.90
2004,03,17,11,29,8.90
2004,03,17,11,30,8.90
2004,03,17,11,31,8.90
2004,03,17,11,32,8.90
2004,03,17,11,33,8.80
2004,03,17,11,34,8.90
2004,03,17,11,35,8.90
2004,03,17,11,36,9.00
2004,03,17,11,37,9.10
2004,03,17,11,38,9.10
2004,03,17,11,39,9.10
2004,03,17,11,40,9.10
2004,03,17,11,41,9.10
2004,03,17,11,42,9.10
2004,03,17,11,43,9.20
2004,03,17,11,44,9.20
2004,03,17,11,45,9.20
2004,03,17,11,46,9.10
2004,03,17,11,47,9.10
2004,03,17,11,48,9.10
2004,03,17,11,49,9.10
2004,03,17,11,50,9.10
2004,03,17,11,51,9.20
2004,03,17,11,52,9.20
2004,03,17,11,53,9.20
2004,03,17,11,54,9.20
2004,03,17,11,55,9.30
2004,03,17,11,56,9.40
2004,03,17,11,57,9.30
2004,03,17,11,58,9.30
2004,03,17,11,59,9.40
2004,03,17,12,00,9.40
2004,03,17,12,01,9.40
2004,03,17,12,02,9.50
2004,03,17,12,03,9.60
2004,03,17,12,04,9.60
2004,03,17,12,05,9.60
2004,03,17,12,06,9.50
2004,03,17,12,07,9.50
2004,03,17,12,08,9.40
2004,03,17,12,09,9.40
2004,03,17,12,10,9.50
2004,03,17,12,11,9.60
2004,03,17,12,12,9.60
2004,03,17,12,13,9.60
2004,03,17,12,14,9.60
2004,03,17,12,15,9.50
2004,03,17,12,16,9.60
2004,03,17,12,17,9.60
2004,03,17,12,18,9.60
2004,03,17,12,19,9.50
2004,03,17,12,20,9.40
2004,03,17,12,21,9.30
2004,03,17,12,22,9.30
2004,03,17,12,23,9.30
2004,03,17,12,24,9.30
2004,03,17,12,25,9.30
2004,03,17,12,26,9.20
2004,03,17,12,27,9.20
2004,03,17,12,28,9.20
2004,03,17,12,29,9.20
2004,03,17,12,30,9.20
2004,03,17,12,31,9.10
2004,03,17,12,32,9.10
2004,03,17,12,33,9.10
2004,03,17,12,34,9.20
2004,03,17,12,35,9.20
2004,03,17,12,36,9.20
2004,03,17,12,37,9.20
2004,03,17,12,38,9.30
2004,03,17,12,39,9.30
2004,03,17,12,40,9.20
2004,03,17,12,41,9.20
2004,03,17,12,42,9.20
2004,03,17,12,43,9.20
2004,03,17,12,44,9.40
2004,03,17,12,45,9.40
2004,03,17,12,46,9.40
2004,03,17,12,47,9.40
2004,03,17,12,48,9.40
2004,03,17,12,49,9.40
2004,03,17,12,50,9.40
2004,03,17,12,51,9.30
2004,03,17,12,52,9.20
2004,03,17,12,53,9.20
2004,03,17,12,54,9.20
2004,03,17,12,55,9.20
2004,03,17,12,56,9.20
2004,03,17,12,57,9.20
2004,03,17,12,58,9.20
2004,03,17,12,59,9.20
2004,03,17,13,00,9.20
2004,03,17,13,01,9.20
2004,03,17,13,02,9.20
2004,03,17,13,03,9.20
2004,03,17,13,04,9.20
2004,03,17,13,05,9.20
2004,03,17,13,06,9.20
2004,03,17,13,07,9.10
2004,03,17,13,08,9.10
2004,03,17,13,09,9.00
2004,03,17,13,10,9.00
2004,03,17,13,11,9.00
2004,03,17,13,12,9.00
2004,03,17,13,13,9.00
2004,03,17,13,14,9.00
2004,03,17,13,15,9.00
2004,03,17,13,16,9.00
2004,03,17,13,17,8.90
2004,03,17,13,18,8.90
2004,03,17,13,19,8.90
2004,03,17,13,20,8.90
2004,03,17,13,21,8.90
2004,03,17,13,22,9.00
2004,03,17,13,23,9.00
2004,03,17,13,24,9.10
2004,03,17,13,25,9.20
2004,03,17,13,26,9.40
2004,03,17,13,27,9.40
2004,03,17,13,28,9.40
2004,03,17,13,29,9.30
2004,03,17,13,30,9.20
2004,03,17,13,31,9.30
2004,03,17,13,32,9.30
2004,03,17,13,33,9.20
2004,03,17,13,34,9.10
2004,03,17,13,35,8.90
2004,03,17,13,36,8.90
2004,03,17,13,37,8.80
2004,03,17,13,38,8.80
2004,03,17,13,39,8.70
2004,03,17,13,40,8.70
2004,03,17,13,41,8.60
2004,03,17,13,42,8.60
2004,03,17,13,43,8.60
2004,03,17,13,44,8.50
2004,03,17,13,45,8.50
2004,03,17,13,46,8.60
2004,03,17,13,47,8.50
2004,03,17,13,48,8.50
2004,03,17,13,49,8.50
2004,03,17,13,50,8.50
2004,03,17,13,51,8.50
2004,03,17,13,52,8.50
2004,03,17,13,53,8.50
2004,03,17,13,54,8.50
2004,03,17,13,55,8.50
2004,03,17,13,56,8.50
2004,03,17,13,57,8.50
2004,03,17,13,58,8.50
2004,03,17,13,59,8.50
2004,03,17,14,00,8.40
2004,03,17,14,01,8.40
2004,03,17,14,02,8.40
2004,03,17,14,03,8.40
2004,03,17,14,04,8.40
2004,03,17,14,05,8.40
2004,03,17,14,06,8.40
2004,03,17,14,07,8.40
2004,03,17,14,08,8.40
2004,03,17,14,09,8.40
2004,03,17,14,10,8.40
2004,03,17,14,11,8.40
2004,03,17,14,12,8.40
2004,03,17,14,13,8.30
2004,03,17,14,14,8.40
2004,03,17,14,15,8.40
2004,03,17,14,16,8.40
2004,03,17,14,17,8.40
2004,03,17,14,18,8.40
2004,03,17,14,19,8.40
2004,03,17,14,20,8.40
2004,03,17,14,21,8.40
2004,03,17,14,22,8.50
2004,03,17,14,23,8.50
2004,03,17,14,24,8.60
2004,03,17,14,25,8.50
2004,03,17,14,26,8.50
2004,03,17,14,27,8.50
2004,03,17,14,28,8.50
2004,03,17,14,29,8.50
2004,03,17,14,30,8.50
2004,03,17,14,31,8.50
2004,03,17,14,32,8.50
2004,03,17,14,33,8.50
2004,03,17,14,34,8.60
2004,03,17,14,35,8.60
2004,03,17,14,36,8.60
2004,03,17,14,37,8.70
2004,03,17,14,38,8.70
2004,03,17,14,39,8.80
2004,03,17,14,40,8.80
2004,03,17,14,41,8.80
2004,03,17,14,42,8.90
2004,03,17,14,43,8.90
2004,03,17,14,44,8.90
2004,03,17,14,45,8.80
2004,03,17,14,46,8.80
2004,03,17,14,47,8.70
2004,03,17,14,48,8.70
2004,03,17,14,49,8.70
2004,03,17,14,50,8.80
2004,03,17,14,51,8.70
2004,03,17,14,52,8.70
2004,03,17,14,53,8.70
2004,03,17,14,54,8.70
2004,03,17,14,55,8.70
2004,03,17,14,56,8.70
2004,03,17,14,57,8.70
2004,03,17,14,58,8.80
2004,03,17,14,59,8.70
2004,03,17,15,00,8.70
2004,03,17,15,01,8.70
2004,03,17,15,02,8.70
2004,03,17,15,03,8.70
2004,03,17,15,04,8.70
2004,03,17,15,05,8.60
2004,03,17,15,06,8.60
2004,03,17,15,07,8.60
2004,03,17,15,08,8.70
2004,03,17,15,09,8.70
2004,03,17,15,10,8.70
2004,03,17,15,11,8.60
2004,03,17,15,12,8.60
2004,03,17,15,13,8.60
2004,03,17,15,14,8.60
2004,03,17,15,15,8.60
2004,03,17,15,16,8.70
2004,03,17,15,17,8.60
2004,03,17,15,18,8.60
2004,03,17,15,19,8.60
2004,03,17,15,20,8.50
2004,03,17,15,21,8.50
2004,03,17,15,22,8.50
2004,03,17,15,23,8.50
2004,03,17,15,24,8.50
2004,03,17,15,25,8.50
2004,03,17,15,26,8.50
2004,03,17,15,27,8.50
2004,03,17,15,28,8.50
2004,03,17,15,29,8.50
2004,03,17,15,30,8.60
2004,03,17,15,31,8.50
2004,03,17,15,32,8.60
2004,03,17,15,33,8.60
2004,03,17,15,34,8.60
2004,03,17,15,35,8.70
2004,03,17,15,36,8.70
2004,03,17,15,37,8.70
2004,03,17,15,38,8.80
2004,03,17,15,39,8.90
2004,03,17,15,40,8.90
2004,03,17,15,41,8.90
2004,03,17,15,42,8.90
2004,03,17,15,43,9.00
2004,03,17,15,44,9.00
2004,03,17,15,45,8.90
2004,03,17,15,46,8.90
2004,03,17,15,47,8.90
2004,03,17,15,48,9.00
2004,03,17,15,49,8.90
2004,03,17,15,50,8.90
2004,03,17,15,51,8.80
2004,03,17,15,52,8.70
2004,03,17,15,53,8.70
2004,03,17,15,54,8.70
2004,03,17,15,55,8.60
2004,03,17,15,56,8.50
2004,03,17,15,57,8.50
2004,03,17,15,58,8.50
2004,03,17,15,59,8.50
2004,03,17,16,00,8.40
2004,03,17,16,01,8.40
2004,03,17,16,02,8.40
2004,03,17,16,03,8.40
2004,03,17,16,04,8.30
2004,03,17,16,05,8.30
2004,03,17,16,06,8.30
2004,03,17,16,07,8.30
2004,03,17,16,08,8.30
2004,03,17,16,09,8.30
2004,03,17,16,10,8.30
2004,03,17,16,11,8.30
2004,03,17,16,12,8.30
2004,03,17,16,13,8.40
2004,03,17,16,14,8.40
2004,03,17,16,15,8.50
2004,03,17,16,16,8.40
2004,03,17,16,17,8.40
2004,03,17,16,18,8.40
2004,03,17,16,19,8.40
2004,03,17,16,20,8.40
2004,03,17,16,21,8.50
2004,03,17,16,22,8.60
2004,03,17,16,23,8.50
2004,03,17,16,24,8.50
2004,03,17,16,25,8.50
2004,03,17,16,26,8.40
2004,03,17,16,27,8.40
2004,03,17,16,28,8.40
2004,03,17,16,29,8.50
2004,03,17,16,30,8.50
2004,03,17,16,31,8.60
2004,03,17,16,32,8.60
2004,03,17,16,33,8.60
2004,03,17,16,34,8.60
2004,03,17,16,35,8.60
2004,03,17,16,36,8.60
2004,03,17,16,37,8.60
2004,03,17,16,38,8.70
2004,03,17,16,39,8.70
2004,03,17,16,40,8.80
2004,03,17,16,41,8.80
2004,03,17,16,42,8.80
2004,03,17,16,43,8.80
2004,03,17,16,44,8.70
2004,03,17,16,45,8.70
2004,03,17,16,46,8.70
2004,03,17,16,47,8.70
2004,03,17,16,48,8.70
2004,03,17,16,49,8.60
2004,03,17,16,50,8.60
2004,03,17,16,51,8.70
2004,03,17,16,52,8.70
2004,03,17,16,53,8.70
2004,03,17,16,54,8.70
2004,03,17,16,55,8.70
2004,03,17,16,56,8.60
2004,03,17,16,57,8.60
2004,03,17,16,58,8.60
2004,03,17,16,59,8.60
2004,03,17,17,00,8.60
2004,03,17,17,01,8.50
2004,03,17,17,02,8.50
2004,03,17,17,03,8.50
2004,03,17,17,04,8.50
2004,03,17,17,05,8.60
2004,03,17,17,06,8.60
2004,03,17,17,07,8.60
2004,03,17,17,08,8.60
2004,03,17,17,09,8.60
2004,03,17,17,10,8.50
2004,03,17,17,11,8.50
2004,03,17,17,12,8.50
2004,03,17,17,13,8.60
2004,03,17,17,14,8.60
2004,03,17,17,15,8.60
2004,03,17,17,16,8.60
2004,03,17,17,17,8.60
2004,03,17,17,18,8.60
2004,03,17,17,19,8.60
2004,03,17,17,20,8.70
2004,03,17,17,21,8.70
2004,03,17,17,22,8.70
2004,03,17,17,23,8.80
2004,03,17,17,24,8.80
2004,03,17,17,25,8.90
2004,03,17,17,26,8.80
2004,03,17,17,27,8.80
2004,03,17,17,28,8.80
2004,03,17,17,29,8.80
2004,03,17,17,30,8.80
2004,03,17,17,31,8.80
2004,03,17,17,32,8.80
2004,03,17,17,33,8.80
2004,03,17,17,34,8.90
2004,03,17,17,35,9.00
2004,03,17,17,36,9.00
2004,03,17,17,37,9.00
2004,03,17,17,38,9.00
2004,03,17,17,39,9.00
2004,03,17,17,40,9.00
2004,03,17,17,41,8.90
2004,03,17,17,42,8.80
2004,03,17,17,43,8.90
2004,03,17,17,44,8.90
2004,03,17,17,45,8.90
2004,03,17,17,46,8.90
2004,03,17,17,47,8.80
2004,03,17,17,48,8.90
2004,03,17,17,49,8.90
2004,03,17,17,50,8.80
2004,03,17,17,51,8.80
2004,03,17,17,52,8.80
2004,03,17,17,53,8.70
2004,03,17,17,54,8.80
2004,03,17,17,55,8.70
2004,03,17,17,56,8.70
2004,03,17,17,57,8.70
2004,03,17,17,58,8.70
2004,03,17,17,59,8.60
2004,03,17,18,00,8.60
2004,03,17,18,01,8.60
2004,03,17,18,02,8.60
2004,03,17,18,03,8.50
2004,03,17,18,04,8.50
2004,03,17,18,05,8.50
2004,03,17,18,06,8.50
2004,03,17,18,07,8.50
2004,03,17,18,08,8.50
2004,03,17,18,09,8.50
2004,03,17,18,10,8.60
2004,03,17,18,11,8.60
2004,03,17,18,12,8.60
2004,03,17,18,13,8.70
2004,03,17,18,14,8.60
2004,03,17,18,15,8.60
2004,03,17,18,16,8.60
2004,03,17,18,17,8.50
2004,03,17,18,18,8.50
2004,03,17,18,19,8.50
2004,03,17,18,20,8.50
2004,03,17,18,21,8.50
2004,03,17,18,22,8.50
2004,03,17,18,23,8.40
2004,03,17,18,24,8.40
2004,03,17,18,25,8.40
2004,03,17,18,26,8.50
2004,03,17,18,27,8.40
2004,03,17,18,28,8.40
2004,03,17,18,29,8.40
2004,03,17,18,30,8.40
2004,03,17,18,31,8.40
2004,03,17,18,32,8.40
2004,03,17,18,33,8.30
2004,03,17,18,34,8.30
2004,03,17,18,35,8.30
2004,03,17,18,36,8.30
2004,03,17,18,37,8.30
2004,03,17,18,38,8.40
2004,03,17,18,39,8.40
2004,03,17,18,40,8.40
2004,03,17,18,41,8.30
2004,03,17,18,42,8.30
2004,03,17,18,43,8.30
2004,03,17,18,44,8.30
2004,03,17,18,45,8.30
2004,03,17,18,46,8.30
2004,03,17,18,47,8.30
2004,03,17,18,48,8.20
2004,03,17,18,49,8.20
2004,03,17,18,50,8.20
2004,03,17,18,51,8.20
2004,03,17,18,52,8.20
2004,03,17,18,53,8.20
2004,03,17,18,54,8.20
2004,03,17,18,55,8.30
2004,03,17,18,56,8.30
2004,03,17,18,57,8.40
2004,03,17,18,58,8.40
2004,03,17,18,59,8.40
2004,03,17,19,00,8.40
2004,03,17,19,01,8.40
2004,03,17,19,02,8.40
2004,03,17,19,03,8.40
2004,03,17,19,04,8.40
2004,03,17,19,05,8.40
2004,03,17,19,06,8.30
2004,03,17,19,07,8.30
2004,03,17,19,08,8.30
2004,03,17,19,09,8.30
2004,03,17,19,10,8.30
2004,03,17,19,11,8.30
2004,03,17,19,12,8.20
2004,03,17,19,13,8.30
2004,03,17,19,14,8.30
2004,03,17,19,15,8.30
2004,03,17,19,16,8.30
2004,03,17,19,17,8.30
2004,03,17,19,18,8.30
2004,03,17,19,19,8.30
2004,03,17,19,20,8.30
2004,03,17,19,21,8.30
2004,03,17,19,22,8.30
2004,03,17,19,23,8.30
2004,03,17,19,24,8.30
2004,03,17,19,25,8.30
2004,03,17,19,26,8.40
2004,03,17,19,27,8.40
2004,03,17,19,28,8.40
2004,03,17,19,29,8.40
2004,03,17,19,30,8.40
2004,03,17,19,31,8.50
2004,03,17,19,32,8.40
2004,03,17,19,33,8.40
2004,03,17,19,34,8.40
2004,03,17,19,35,8.50
2004,03,17,19,36,8.50
2004,03,17,19,37,8.50
2004,03,17,19,38,8.50
2004,03,17,19,39,8.50
2004,03,17,19,40,8.50
2004,03,17,19,41,8.50
2004,03,17,19,42,8.60
2004,03,17,19,43,8.50
2004,03,17,19,44,8.50
2004,03,17,19,45,8.50
2004,03,17,19,46,8.40
2004,03,17,19,47,8.40
2004,03,17,19,48,8.40
2004,03,17,19,49,8.30
2004,03,17,19,50,8.30
2004,03,17,19,51,8.30
2004,03,17,19,52,8.30
2004,03,17,19,53,8.30
2004,03,17,19,54,8.30
2004,03,17,19,55,8.30
2004,03,17,19,56,8.30
2004,03,17,19,57,8.30
2004,03,17,19,58,8.30
2004,03,17,19,59,8.30
2004,03,17,20,00,8.30
2004,03,17,20,01,8.30
2004,03,17,20,02,8.30
2004,03,17,20,03,8.30
2004,03,17,20,04,8.30
2004,03,17,20,05,8.40
2004,03,17,20,06,8.40
2004,03,17,20,07,8.40
2004,03,17,20,08,8.40
2004,03,17,20,09,8.50
2004,03,17,20,10,8.60
2004,03,17,20,11,8.70
2004,03,17,20,12,8.80
2004,03,17,20,13,8.80
2004,03,17,20,14,8.70
2004,03,17,20,15,8.70
2004,03,17,20,16,8.60
2004,03,17,20,17,8.60
2004,03,17,20,18,8.60
2004,03,17,20,19,8.70
2004,03,17,20,20,8.60
2004,03,17,20,21,8.60
2004,03,17,20,22,8.60
2004,03,17,20,23,8.50
2004,03,17,20,24,8.50
2004,03,17,20,25,8.50
2004,03,17,20,26,8.50
2004,03,17,20,27,8.50
2004,03,17,20,28,8.50
2004,03,17,20,29,8.50
2004,03,17,20,30,8.40
2004,03,17,20,31,8.50
2004,03,17,20,32,8.50
2004,03,17,20,33,8.40
2004,03,17,20,34,8.40
2004,03,17,20,35,8.40
2004,03,17,20,36,8.40
2004,03,17,20,37,8.40
2004,03,17,20,38,8.40
2004,03,17,20,39,8.40
2004,03,17,20,40,8.50
2004,03,17,20,41,8.60
2004,03,17,20,42,8.70
2004,03,17,20,43,8.70
2004,03,17,20,44,8.70
2004,03,17,20,45,8.70
2004,03,17,20,46,8.70
2004,03,17,20,47,8.70
2004,03,17,20,48,8.80
2004,03,17,20,49,8.80
2004,03,17,20,50,8.80
2004,03,17,20,51,8.70
2004,03,17,20,52,8.70
2004,03,17,20,53,8.70
2004,03,17,20,54,8.80
2004,03,17,20,55,8.90
2004,03,17,20,56,8.90
2004,03,17,20,57,8.90
2004,03,17,20,58,8.80
2004,03,17,20,59,8.80
2004,03,17,21,00,8.80
2004,03,17,21,01,8.70
2004,03,17,21,02,8.70
2004,03,17,21,03,8.60
2004,03,17,21,04,8.60
2004,03,17,21,05,8.60
2004,03,17,21,06,8.60
2004,03,17,21,07,8.50
2004,03,17,21,08,8.50
2004,03,17,21,09,8.50
2004,03,17,21,10,8.50
2004,03,17,21,11,8.50
2004,03,17,21,12,8.60
2004,03,17,21,13,8.60
2004,03,17,21,14,8.60
2004,03,17,21,15,8.60
2004,03,17,21,16,8.60
2004,03,17,21,17,8.60
2004,03,17,21,18,8.60
2004,03,17,21,19,8.60
2004,03,17,21,20,8.60
2004,03,17,21,21,8.60
2004,03,17,21,22,8.60
2004,03,17,21,23,8.60
2004,03,17,21,24,8.60
2004,03,17,21,25,8.60
2004,03,17,21,26,8.60
2004,03,17,21,27,8.60
2004,03,17,21,28,8.60
2004,03,17,21,29,8.60
2004,03,17,21,30,8.60
2004,03,17,21,31,8.70
2004,03,17,21,32,8.70
2004,03,17,21,33,8.70
2004,03,17,21,34,8.70
2004,03,17,21,35,8.70
2004,03,17,21,36,8.70
2004,03,17,21,37,8.70
2004,03,17,21,38,8.70
2004,03,17,21,39,8.70
2004,03,17,21,40,8.70
2004,03,17,21,41,8.70
2004,03,17,21,42,8.80
2004,03,17,21,43,8.80
2004,03,17,21,44,8.80
2004,03,17,21,45,8.80
2004,03,17,21,46,8.70